Location: Quaker Farms
(41.4276°N, 73.1557°W)
Time: 20:25:24
(UTC+00:00)

S-56A Canister/Altair - Pass Details

Date: 16 June 2021
Orbit: 631 x 2501 km, 38.9° (Epoch: 30 July)

Event Time Altitude Azimuth Distance (km) Brightness Sun altitude
Rises 14:34:32 0° 277° (W) 3,399 10.5 55.9°
Reaches altitude 10° 14:36:45 10° 272° (W) 2,627 10.1 56.3°
Maximum altitude 14:42:51 52° 197° (SSW) 1,452 9.8 57.3°
Drops below altitude 10° 14:52:01 10° 125° (SE) 3,898 11.8 58.9°
Sets 14:55:59 0° 121° (ESE) 5,191 12.2 59.6°
